FW5945 Weather Reports


Display with metric or nautical units.
time (UTC)temp
F
wind
direction
speed
MPH
gust
MPH
rain 1hr
in
rain 24hr
in
rain mn
in
humidity
%
barometer
mb
20260906101243 71 255 1.0 3.0 0.00 0.00 0.00 91 1011.2
20260906100242 71 245 2.0 3.0 0.00 0.00 0.00 91 1011.2
20260906095240 71 294 1.0 3.0 0.00 0.00 0.00 91 1011.2
20260906094240 71 265 1.0 3.0 0.00 0.00 0.00 91 1010.8
20260906093238 71 261 1.0 3.0 0.00 0.00 0.00 91 1010.8
20260906092237 72 255 2.0 3.0 0.00 0.00 0.00 91 1010.8
20260906091236 72 256 2.0 4.0 0.00 0.00 0.00 91 1010.8
20260906090234 72 210 2.0 4.0 0.00 0.00 0.00 91 1010.8
20260906085233 72 255 1.0 2.0 0.00 0.00 0.00 90 1010.8
20260906084232 72 272 1.0 2.0 0.00 0.00 0.00 90 1010.8
20260906083231 72 271 1.0 2.0 0.00 0.00 0.00 90 1010.5
20260906082158 72 277 1.0 3.0 0.00 0.00 0.00 90 1010.8
20260906081158 72 300 2.0 4.0 0.00 0.00 0.00 90 1010.8
20260906080156 72 296 1.0 4.0 0.00 0.00 0.00 90 1010.8
20260906075155 72 311 2.0 4.0 0.00 0.00 0.00 90 1010.8
20260906074154 72 311 1.0 2.0 0.00 0.00 0.00 90 1010.8
20260906073152 73 86 0.0 3.0 0.00 0.00 0.00 90 1010.8
20260906072151 72 71 1.0 4.0 0.00 0.00 0.00 90 1010.8
20260906071150 72 63 1.0 4.0 0.00 0.00 0.00 90 1010.8
20260906065912 72 61 2.0 4.0 0.00 0.00 0.00 91 1011.2
20260906064910 72 84 3.0 4.0 0.00 0.00 0.00 91 1011.2
20260906063908 72 64 0.0 4.0 0.00 0.00 0.00 90 1011.2
20260906062907 72 65 2.0 3.0 0.00 0.00 0.00 90 1011.2
20260906061906 72 307 2.0 3.0 0.00 0.00 0.00 90 1011.2
20260906060904 72 315 2.0 3.0 0.00 0.00 0.00 90 1011.2
20260906055904 72 256 1.0 3.0 0.00 0.00 0.00 90 1011.2
20260906054902 72 246 2.0 7.0 0.00 0.00 0.00 90 1011.5
20260906053827 72 227 4.0 7.0 0.00 0.00 0.00 90 1011.5
20260906052827 72 313 2.0 4.0 0.00 0.00 0.00 90 1011.5
20260906051825 72 320 2.0 4.0 0.00 0.00 0.00 90 1011.2
20260906050823 72 333 3.0 5.0 0.00 0.00 0.00 90 1011.2
20260906045822 72 318 1.0 5.0 0.00 0.00 0.00 90 1011.5
20260906044820 72 342 2.0 3.0 0.00 0.00 0.00 89 1011.5
20260906043819 72 307 2.0 4.0 0.00 0.00 0.00 89 1011.5
20260906042819 72 318 2.0 4.0 0.00 0.00 0.00 89 1011.9
20260906041817 72 323 3.0 4.0 0.00 0.00 0.00 89 1011.9
20260906040817 73 317 2.0 5.0 0.00 0.00 0.00 89 1011.9
20260906035815 73 321 4.0 5.0 0.00 0.00 0.00 89 1011.9
20260906034814 73 312 1.0 3.0 0.00 0.00 0.00 89 1011.9
20260906033812 73 312 2.0 4.0 0.00 0.00 0.00 89 1011.9
20260906032811 73 292 2.0 6.0 0.00 0.00 0.00 89 1012.2
20260906031810 73 252 3.0 4.0 0.00 0.00 0.00 89 1012.2
20260906030809 73 259 1.0 3.0 0.00 0.00 0.00 89 1012.2
20260906025635 73 295 1.0 3.0 0.00 0.00 0.00 89 1012.2
20260906024633 73 257 2.0 4.0 0.00 0.00 0.00 89 1012.2
20260906023631 73 309 2.0 5.0 0.00 0.00 0.00 89 1012.2
20260906022629 73 266 2.0 5.0 0.00 0.00 0.00 89 1011.9
20260906021557 73 314 3.0 5.0 0.00 0.00 0.00 89 1011.5
20260906020453 73 340 2.0 5.0 0.00 0.00 0.00 89 1011.5
20260906015451 74 314 2.0 5.0 0.00 0.00 0.00 88 1011.5
20260906014419 74 320 2.0 4.0 0.00 0.00 0.00 88 1011.2
20260906013417 74 324 2.0 5.0 0.00 0.00 0.00 88 1011.2
20260906012415 74 294 2.0 5.0 0.00 0.00 0.00 87 1010.8
20260906011414 74 2 2.0 6.0 0.00 0.00 0.00 87 1011.2
20260906010412 75 316 5.0 9.0 0.00 0.00 0.00 87 1011.2
20260906005411 75 250 4.0 9.0 0.00 0.00 0.00 87 1010.8
20260906004410 75 203 3.0 6.0 0.00 0.00 0.00 86 1010.5
20260906003409 75 301 2.0 8.0 0.00 0.00 0.00 86 1010.5
20260906002408 75 128 2.0 8.0 0.00 0.00 0.00 85 1010.5
20260906001406 76 145 2.0 6.0 0.00 0.00 0.00 84 1010.8
20260906000333 76 92 2.0 7.0 0.00 0.00 0.00 83 1011.2
20260905235331 76 123 2.0 7.0 0.00 0.00 0.00 80 1011.2
20260905234329 76 155 2.0 12.0 0.00 0.00 0.00 80 1011.9
20260905233328 76 64 2.0 12.0 0.00 0.00 0.00 80 1011.5
20260905232327 77 81 5.0 10.0 0.00 0.00 0.00 77 1012.2
20260905231326 78 323 2.0 21.0 0.00 0.00 0.00 75 1012.5
20260905230325 80 329 6.0 25.0 0.00 0.00 0.00 72 1012.9
20260905225324 85 342 11.0 28.0 0.00 0.00 0.00 62 1013.2
20260905224323 90 10 10.0 28.0 0.00 0.00 0.00 57 1012.5
20260905223321 96 269 4.0 8.0 0.00 0.00 0.00 54 1010.5
20260905222319 96 219 5.0 8.0 0.00 0.00 0.00 54 1009.8
20260905221318 97 235 5.0 9.0 0.00 0.00 0.00 53 1010.2
20260905220316 97 220 5.0 13.0 0.00 0.00 0.00 51 1010.2
20260905215243 98 218 7.0 13.0 0.00 0.00 0.00 50 1009.5
20260905214242 100 223 8.0 11.0 0.00 0.00 0.00 48 1009.5
20260905213208 100 157 2.0 7.0 0.00 0.00 0.00 48 1009.5
20260905212207 100 198 5.0 9.0 0.00 0.00 0.00 48 1009.5
20260905211102 99 255 4.0 9.0 0.00 0.00 0.00 49 1009.8
20260905210101 99 190 2.0 14.0 0.00 0.00 0.00 50 1009.8
20260905205059 100 204 9.0 14.0 0.00 0.00 0.00 48 1009.5
20260905204058 100 222 3.0 8.0 0.00 0.00 0.00 47 1009.5
20260905203057 100 239 5.0 8.0 0.00 0.00 0.00 46 1009.8
20260905202056 100 286 1.0 9.0 0.00 0.00 0.00 46 1009.5
20260905201055 101 259 5.0 8.0 0.00 0.00 0.00 45 1009.8
20260905195950 101 210 2.0 6.0 0.00 0.00 0.00 46 1009.8
20260905194917 100 101 2.0 6.0 0.00 0.00 0.00 46 1009.8
20260905193916 100 61 3.0 6.0 0.00 0.00 0.00 47 1010.2
20260905192916 99 56 3.0 6.0 0.00 0.00 0.00 47 1010.2
20260905191741 99 205 4.0 10.0 0.00 0.00 0.00 48 1010.5
20260905190739 99 65 6.0 10.0 0.00 0.00 0.00 50 1010.8
20260905185737 100 70 2.0 8.0 0.00 0.00 0.00 49 1010.8
20260905184704 99 105 5.0 9.0 0.00 0.00 0.00 49 1011.2
20260905183631 98 72 2.0 9.0 0.00 0.00 0.00 52 1011.2
20260905182630 98 110 3.0 8.0 0.00 0.00 0.00 53 1011.2
20260905181628 99 151 3.0 9.0 0.00 0.00 0.00 52 1011.5
20260905180627 98 210 4.0 10.0 0.00 0.00 0.00 53 1011.9
20260905175626 98 282 6.0 10.0 0.00 0.00 0.00 54 1011.9
20260905174625 98 216 4.0 7.0 0.00 0.00 0.00 53 1011.9
20260905173623 95 277 2.0 12.0 0.00 0.00 0.00 56 1011.9
20260905172551 95 269 6.0 12.0 0.00 0.00 0.00 58 1012.2
20260905171549 95 202 7.0 11.0 0.00 0.00 0.00 58 1012.2
20260905170548 94 188 2.0 10.0 0.00 0.00 0.00 58 1012.5
20260905165546 94 274 4.0 9.0 0.00 0.00 0.00 59 1012.5
20260905164545 94 173 4.0 10.0 0.00 0.00 0.00 59 1012.9
20260905163544 93 105 3.0 11.0 0.00 0.00 0.00 62 1012.9
20260905162543 92 197 5.0 15.0 0.00 0.00 0.00 63 1013.2
20260905161541 92 222 9.0 15.0 0.00 0.00 0.00 64 1013.2
20260905160540 91 251 5.0 11.0 0.00 0.00 0.00 66 1013.5
20260905155538 91 229 4.0 11.0 0.00 0.00 0.00 66 1013.5
20260905154536 91 231 2.0 8.0 0.00 0.00 0.00 67 1013.9
20260905153535 89 242 3.0 8.0 0.00 0.00 0.00 70 1013.9
20260905152533 88 283 3.0 10.0 0.00 0.00 0.00 72 1013.9
20260905151428 87 267 6.0 12.0 0.00 0.00 0.00 72 1013.9
20260905150427 86 231 3.0 12.0 0.00 0.00 0.00 74 1014.2
20260905145426 86 230 7.0 13.0 0.00 0.00 0.00 75 1014.2
20260905144355 85 239 6.0 11.0 0.00 0.00 0.00 76 1014.2
20260905143322 85 275 5.0 10.0 0.00 0.00 0.00 78 1014.2
20260905142250 84 209 5.0 12.0 0.00 0.00 0.00 79 1014.2
20260905141249 83 237 7.0 12.0 0.00 0.00 0.00 80 1014.2
20260905140247 82 252 3.0 9.0 0.00 0.00 0.00 82 1014.6
20260905135247 81 263 5.0 8.0 0.00 0.00 0.00 85 1014.6
20260905134246 80 226 1.0 8.0 0.00 0.00 0.00 88 1014.6
20260905133111 79 263 3.0 9.0 0.00 0.00 0.00 89 1014.6
20260905132110 78 252 6.0 9.0 0.00 0.00 0.00 91 1014.6
20260905131109 78 283 3.0 8.0 0.00 0.00 0.00 93 1014.6
20260905130036 77 269 2.0 8.0 0.00 0.00 0.00 93 1014.6
20260905125035 77 288 3.0 7.0 0.00 0.00 0.00 93 1014.9
20260905124034 77 272 4.0 7.0 0.00 0.00 0.00 94 1014.6
20260905123033 77 257 4.0 6.0 0.00 0.00 0.00 94 1014.6
20260905122031 76 265 3.0 8.0 0.00 0.00 0.00 94 1014.2
20260905121029 76 261 3.0 9.0 0.00 0.00 0.00 94 1014.6
20260905115925 76 265 4.0 9.0 0.00 0.00 0.00 94 1014.2
20260905114924 76 243 3.0 10.0 0.00 0.00 0.00 94 1014.2
20260905113922 76 241 4.0 10.0 0.00 0.00 0.00 94 1014.2
20260905112850 76 265 4.0 7.0 0.00 0.00 0.00 94 1013.9
20260905111849 76 259 3.0 7.0 0.00 0.00 0.00 94 1013.9
20260905110847 76 249 2.0 6.0 0.00 0.00 0.00 94 1013.9
20260905105845 76 267 2.0 4.0 0.00 0.00 0.00 94 1013.5
20260905104844 76 223 3.0 4.0 0.00 0.00 0.00 93 1013.5
20260905103842 76 234 2.0 5.0 0.00 0.00 0.00 93 1013.5
20260905102840 76 216 2.0 8.0 0.00 0.00 0.00 93 1013.5